User: anonymous   Login
Location: Gisborne
(38.6530°S, 178.0040°E)
Time: 03:46:19
(UTC+13:00)
Language:

Helios 1B rocket - Orbit

View from above orbital plane
View from above orbital plane
View from above satellite
View from above satellite

Ground track
Ground track

The orbit data is extracted from the following two-line orbital elements,

1 25979U 99064C   19289.22458684  .00000665  00000-0  65173-4 0  9991
2 25979  98.1486 192.4994 0007263  34.2650 325.9037 14.95819903 77389
Epoch (UTC): 16 October 2019 05:23:24
Eccentricity: 0.0007263
inclination: 98.1486°
perigee height: 575 km
apogee height: 585 km
right ascension of ascending node: 192.4994°
argument of perigee: 34.2650°
revolutions per day: 14.95819903
mean anomaly at epoch: 325.9037°
orbit number at epoch: 7738

The dashed part of the orbit path shows where the satellite is in the earth's shadow,  

DLR